1507582800.23,51176,11.25,73148.8,-10.29,-11.29,-11.33,0,*65
1507582801.49,51177,11.25,73154.8,-10.29,-11.19,-11.29,0,*6C
1507582802.78,51178,11.25,73152.0,-10.29,-11.33,-11.33,0,*60
1507582804.07,51179,11.25,73150.8,-10.29,-11.29,-11.33,0,*6A
1507582805.36,51180,11.25,73152.5,-10.29,-11.29,-11.33,0,*6C
1507582806.65,51181,11.25,73148.0,-10.29,-11.33,-11.33,0,*66
1507582807.92,51182,11.25,73150.3,-10.29,-11.33,-11.41,0,*60
1507582809.13,51183,11.25,73152.3,-10.31,-11.41,-11.45,0,*69
1507582810.38,51184,11.25,73148.5,-10.29,-11.45,-11.45,0,*63
1507582811.66,51185,11.25,73156.0,-10.29,-11.45,-11.55,0,*63
1507582812.95,51186,11.25,73144.0,-10.29,-11.55,-11.55,0,*61
1507582814.25,51187,11.25,73138.0,-10.29,-11.55,-11.55,0,*60
1507582815.5,51188,11.25,73146.3,-10.29,-11.45,-11.45,0,*6F
1507582816.77,51189,11.25,73142.3,-10.29,-11.45,-11.55,0,*6F
1507582818.02,51190,11.25,73138.0,-10.29,-11.45,-11.45,0,*66
1507582819.27,51191,11.25,73132.5,-10.29,-11.41,-11.45,0,*63
1507582820.51,51192,11.25,73126.3,-10.29,-11.41,-11.45,0,*60
1507582821.76,51193,11.25,73126.3,-10.29,-11.41,-11.45,0,*61
1507582823.03,51194,11.25,73138.3,-10.29,-11.33,-11.41,0,*67
1507582824.27,51195,11.25,73136.0,-10.31,-11.33,-11.41,0,*6F
1507582825.53,51196,11.25,73140.5,-10.31,-11.29,-11.33,0,*62
1507582826.76,51197,11.25,73142.3,-10.31,-11.19,-11.29,0,*6B
1507582828.03,51198,11.25,73144.8,-10.33,-11.33,-11.45,0,*64
1507582829.27,51199,11.25,73150.3,-10.31,-11.29,-11.41,0,*68
1507582830.51,51200,11.25,73144.8,-10.27,-11.23,-11.29,0,*68
1507582831.78,51201,11.25,73144.5,-10.27,-11.29,-11.29,0,*63
1507582833.05,51202,11.25,73148.3,-10.29,-11.33,-11.41,0,*6B
1507582834.32,51203,11.25,73146.3,-10.29,-11.41,-11.33,0,*6A
1507582835.61,51204,11.25,73150.3,-10.29,-11.29,-11.33,0,*63
1507582836.88,51205,11.25,73148.3,-10.29,-11.33,-11.41,0,*6C
1507582838.15,51206,11.25,73144.8,-10.29,-11.33,-11.41,0,*6F
1507582839.4,51207,11.25,73150.3,-10.29,-11.41,-11.41,0,*6B
1507582840.67,51208,11.25,73150.0,-10.29,-11.33,-11.41,0,*61
1507582841.9,51209,11.25,73160.8,-10.27,-11.23,-11.37,0,*6E
1507582843.17,51210,11.25,73158.8,-10.29,-11.33,-11.41,0,*68
1507582844.42,51211,11.25,73164.8,-10.29,-11.41,-11.41,0,*6C
1507582845.67,51212,11.25,73168.3,-10.29,-11.41,-11.41,0,*6F
1507582846.91,51213,11.25,73164.0,-10.29,-11.41,-11.45,0,*6A
1507582848.16,51214,11.25,73160.3,-10.29,-11.41,-11.45,0,*6D
1507582849.43,51215,11.25,73162.0,-10.29,-11.45,-11.55,0,*69
1507582850.73,51216,11.25,73162.8,-10.29,-11.55,-11.55,0,*6B
1507582851.99,51217,11.25,73154.0,-10.27,-11.37,-11.51,0,*64
1507582853.28,51218,11.25,73152.0,-10.29,-11.55,-11.55,0,*65
1507582854.56,51219,11.25,73148.5,-10.29,-11.45,-11.55,0,*65
1507582855.83,51220,11.25,73144.0,-10.29,-11.55,-11.45,0,*6F
1507582857.07,51221,11.25,73150.8,-10.27,-11.41,-11.51,0,*60
1507582858.36,51222,11.25,73146.0,-10.29,-11.55,-11.55,0,*6C
1507582859.64,51223,11.25,73148.8,-10.29,-11.45,-11.55,0,*6C
1507582860.93,51224,11.25,73150.5,-10.29,-11.55,-11.55,0,*6A
1507582862.2,51225,11.25,73156.0,-10.29,-11.55,-11.45,0,*6A
1507582863.48,51226,11.25,73156.0,-10.29,-11.45,-11.55,0,*69
1507582864.72,51227,11.25,73152.3,-10.29,-11.41,-11.45,0,*6D
1507582865.99,51228,11.25,73156.8,-10.29,-11.41,-11.55,0,*63
1507582867.27,51229,11.25,73154.5,-10.29,-11.45,-11.55,0,*66
1507582868.49,51230,11.25,73138.5,-10.31,-11.45,-11.45,0,*66
1507582869.71,51231,11.25,73148.0,-10.31,-11.45,-11.45,0,*67
1507582870.92,51232,11.25,73138.0,-10.31,-11.41,-11.45,0,*60
1507582872.16,51233,11.25,73132.8,-10.31,-11.33,-11.45,0,*64
1507582873.38,51234,11.25,73134.8,-10.31,-11.41,-11.45,0,*66
1507582874.59,51235,11.25,73142.8,-10.31,-11.41,-11.45,0,*67
1507582875.81,51236,11.25,73150.0,-10.31,-11.45,-11.45,0,*60
1507582877.09,51237,11.25,73150.5,-10.29,-11.45,-11.55,0,*69
1507582878.36,51238,11.25,73144.3,-10.29,-11.45,-11.55,0,*66
1507582879.63,51239,11.25,73138.5,-10.29,-11.41,-11.55,0,*63
1507582880.88,51240,11.25,73152.0,-10.29,-11.45,-11.45,0,*68
1507582882.15,51241,11.25,73152.5,-10.29,-11.41,-11.55,0,*6C
1507582883.43,51242,11.25,73154.8,-10.29,-11.45,-11.59,0,*67
1507582884.72,51243,11.25,73162.3,-10.29,-11.55,-11.59,0,*67
1507582885.97,51244,11.25,73156.0,-10.29,-11.45,-11.45,0,*6C
1507582887.22,51245,11.25,73134.3,-10.29,-11.45,-11.45,0,*6D
1507582888.51,51246,11.25,73138.5,-10.29,-11.55,-11.55,0,*6E
1507582889.73,51247,11.25,73144.5,-10.31,-11.45,-11.45,0,*66
1507582890.98,51248,11.25,73144.0,-10.31,-11.45,-11.55,0,*68
1507582892.2,51249,11.25,73146.3,-10.31,-11.45,-11.41,0,*6C
1507582893.47,51250,11.25,73146.3,-10.29,-11.33,-11.45,0,*68
1507582894.71,51251,11.25,73134.0,-10.31,-11.33,-11.45,0,*60
1507582895.96,51252,11.25,73136.8,-10.31,-11.33,-11.33,0,*62
1507582897.22,51253,11.25,73140.0,-10.31,-11.33,-11.33,0,*63
1507582898.45,51254,11.25,73140.3,-10.31,-11.19,-11.29,0,*67
1507582899.69,51255,11.25,73142.5,-10.29,-11.19,-11.19,0,*6C
1507582900.97,51256,11.25,73144.5,-10.29,-11.29,-11.41,0,*61
1507582902.25,51257,11.25,73144.5,-10.29,-11.33,-11.33,0,*6E
1507582903.51,51258,11.25,73152.8,-10.31,-11.33,-11.33,0,*68
1507582904.78,51259,11.25,73160.5,-10.29,-11.33,-11.41,0,*65
1507582906.03,51260,11.25,73158.5,-10.29,-11.41,-11.45,0,*6E
1507582907.27,51261,11.25,73158.0,-10.29,-11.41,-11.45,0,*6F
1507582908.52,51262,11.25,73158.0,-10.29,-11.41,-11.45,0,*6C
1507582909.79,51263,11.25,73146.5,-10.29,-11.45,-11.55,0,*68
1507582911.04,51264,11.25,73142.3,-10.29,-11.41,-11.45,0,*6A
1507582912.26,51265,11.25,73138.5,-10.27,-11.41,-11.45,0,*65
1507582913.53,51266,11.25,73118.3,-10.29,-11.41,-11.55,0,*69
1507582914.77,51267,11.25,73118.3,-10.29,-11.41,-11.41,0,*6D
1507582916.04,51268,11.25,73114.5,-10.29,-11.33,-11.41,0,*67
1507582917.28,51269,11.25,73126.5,-10.29,-11.19,-11.41,0,*6E
1507582918.53,51270,11.25,73134.0,-10.31,-11.29,-11.41,0,*6C
1507582919.76,51271,11.25,73132.3,-10.31,-11.19,-11.33,0,*6B
1507582920.97,51272,11.25,73146.0,-10.31,-11.15,-11.19,0,*6C
1507582922.2,51273,11.25,73152.5,-10.31,-11.19,-11.33,0,*69
1507582923.48,51274,11.25,73154.5,-10.29,-11.33,-11.33,0,*6F
1507582924.77,51275,11.25,73156.5,-10.29,-11.29,-11.33,0,*65
1507582926.07,51276,11.25,73152.3,-10.29,-11.29,-11.29,0,*6D
1507582927.36,51277,11.25,73144.3,-10.29,-11.29,-11.33,0,*67
1507582928.63,51278,11.25,73150.8,-10.27,-11.29,-11.37,0,*62
1507582929.9,51279,11.25,73128.3,-10.29,-11.29,-11.41,0,*6C
1507582931.17,51280,11.25,73128.5,-10.29,-11.33,-11.41,0,*61
1507582932.44,51281,11.25,73132.0,-10.29,-11.33,-11.41,0,*60
1507582933.69,51282,11.25,73146.3,-10.29,-11.41,-11.41,0,*66
1507582934.93,51283,11.25,73136.8,-10.27,-11.29,-11.41,0,*67
1507582936.17,51284,11.25,73134.0,-10.27,-11.37,-11.41,0,*6F
1507582937.46,51285,11.25,73144.0,-10.29,-11.33,-11.33,0,*61
1507582938.75,51286,11.25,73144.3,-10.29,-11.29,-11.33,0,*69
1507582940.04,51287,11.25,73148.0,-10.29,-11.29,-11.33,0,*68
1507582941.28,51288,11.25,73152.5,-10.27,-11.23,-11.29,0,*68
1507582942.52,51289,11.25,73156.8,-10.29,-11.19,-11.19,0,*6D
1507582943.82,51290,11.25,73160.3,-10.29,-11.29,-11.29,0,*65
1507582945.09,51291,11.25,73152.8,-10.29,-11.33,-11.41,0,*61
1507582946.33,51292,11.25,73156.8,-10.29,-11.41,-11.41,0,*67
1507582947.62,51293,11.25,73152.0,-10.29,-11.33,-11.33,0,*66
1507582948.89,51294,11.25,73148.5,-10.29,-11.33,-11.41,0,*64
1507582950.19,51295,11.25,73150.3,-10.29,-11.33,-11.55,0,*60
1507582951.43,51296,11.25,73162.5,-10.29,-11.41,-11.45,0,*67
1507582952.7,51297,11.25,73166.8,-10.29,-11.33,-11.45,0,*63
1507582953.97,51298,11.25,73158.3,-10.29,-11.33,-11.45,0,*6C
1507582955.23,51299,11.25,73158.3,-10.27,-11.37,-11.51,0,*62
1507582956.47,51300,11.25,73154.3,-10.29,-11.41,-11.41,0,*6D
1507582957.77,51301,11.25,73162.5,-10.29,-11.33,-11.55,0,*6C
1507582959.04,51302,11.25,73150.8,-10.29,-11.33,-11.45,0,*6E
1507582960.29,51303,11.25,73144.5,-10.29,-11.45,-11.45,0,*6E
1507582961.56,51304,11.25,73146.5,-10.29,-11.41,-11.55,0,*6C
1507582962.85,51305,11.25,73128.5,-10.29,-11.55,-11.55,0,*68
1507582964.13,51306,11.25,73124.5,-10.29,-11.45,-11.55,0,*6A
1507582965.37,51307,11.25,73160.3,-10.27,-11.33,-11.45,0,*65
1507582966.64,51308,11.25,73154.3,-10.29,-11.41,-11.55,0,*60
1507582967.89,51309,11.25,73148.0,-10.29,-11.45,-11.45,0,*64
1507582969.16,51310,11.25,73144.0,-10.29,-11.33,-11.41,0,*69
1507582970.45,51311,11.25,73148.5,-10.29,-11.29,-11.33,0,*66
1507582971.74,51312,11.25,73140.5,-10.29,-11.29,-11.33,0,*65
1507582973.01,51313,11.25,73146.0,-10.29,-11.33,-11.41,0,*6A
1507582974.28,51314,11.25,73144.5,-10.27,-11.29,-11.29,0,*66
1507582975.57,51315,11.25,73150.0,-10.29,-11.29,-11.33,0,*62
1507582976.82,51316,11.25,73146.0,-10.29,-11.41,-11.41,0,*6A
1507582978.09,51317,11.25,73142.5,-10.29,-11.33,-11.41,0,*6E
1507582979.33,51318,11.25,73138.3,-10.27,-11.29,-11.41,0,*64
1507582980.59,51319,11.25,73144.5,-10.27,-11.37,-11.37,0,*6B
1507582981.84,51320,11.25,73150.8,-10.29,-11.41,-11.41,0,*6F
1507582983.08,51321,11.25,73144.8,-10.27,-11.37,-11.41,0,*61
1507582984.32,51322,11.25,73140.8,-10.29,-11.41,-11.45,0,*69
1507582985.59,51323,11.25,73148.5,-10.29,-11.33,-11.45,0,*6D
1507582986.88,51324,11.25,73148.5,-10.29,-11.33,-11.55,0,*6B
1507582988.15,51325,11.25,73150.5,-10.29,-11.33,-11.45,0,*6B
1507582989.42,51326,11.25,73164.0,-10.29,-11.33,-11.45,0,*68
1507582990.69,51327,11.25,73154.5,-10.29,-11.41,-11.55,0,*6D
1507582991.96,51328,11.25,73164.8,-10.27,-11.55,-11.63,0,*6C
1507582993.22,51329,11.25,73168.8,-10.27,-11.37,-11.51,0,*68
1507582994.47,51330,11.25,73170.0,-10.29,-11.45,-11.45,0,*6E
1507582995.74,51331,11.25,73166.0,-10.29,-11.41,-11.55,0,*6A
1507582996.96,51332,11.25,73162.5,-10.27,-11.41,-11.41,0,*62
1507582998.25,51333,11.25,73158.8,-10.29,-11.55,-11.55,0,*6D
1507582999.49,51334,11.25,73158.3,-10.27,-11.51,-11.41,0,*65
1507583000.77,51335,11.25,73154.5,-10.29,-11.45,-11.55,0,*6A
1507583002.04,51336,11.25,73156.8,-10.29,-11.55,-11.45,0,*69
1507583003.31,51337,11.25,73152.5,-10.29,-11.45,-11.55,0,*68
1507583004.59,51338,11.25,73154.5,-10.29,-11.45,-11.55,0,*67
1507583005.86,51339,11.25,73144.8,-10.29,-11.45,-11.55,0,*66
1507583007.14,51340,11.25,73150.3,-10.29,-11.45,-11.55,0,*68
1507583008.38,51341,11.25,73154.8,-10.27,-11.41,-11.55,0,*63
1507583009.65,51342,11.25,73154.5,-10.29,-11.45,-11.59,0,*66
1507583010.92,51343,11.25,73154.8,-10.29,-11.33,-11.41,0,*6F
1507583012.19,51344,11.25,73166.3,-10.29,-11.33,-11.41,0,*68
1507583013.47,51345,11.25,73168.3,-10.29,-11.29,-11.41,0,*62
1507583014.71,51346,11.25,73160.8,-10.29,-11.15,-11.19,0,*63
1507583015.97,51347,11.25,73168.5,-10.27,-11.29,-11.29,0,*60
1507583017.24,51348,11.25,73160.3,-10.27,-11.29,-11.37,0,*60
1507583018.5,51349,11.25,73170.3,-10.27,-11.33,-11.37,0,*6A
1507583019.76,51350,11.25,73166.3,-10.27,-11.29,-11.37,0,*69
1507583021.01,51351,11.25,73164.8,-10.29,-11.41,-11.45,0,*6D
1507583022.26,51352,11.25,73168.3,-10.29,-11.45,-11.45,0,*6A
1507583023.5,51353,11.25,73168.0,-10.27,-11.29,-11.41,0,*6B
1507583024.75,51354,11.25,73166.5,-10.29,-11.41,-11.45,0,*68
1507583026.0,51355,11.25,73168.5,-10.29,-11.41,-11.45,0,*69
1507583027.27,51356,11.25,73166.0,-10.29,-11.45,-11.55,0,*6F
1507583028.53,51357,11.25,73164.3,-10.27,-11.51,-11.51,0,*61
1507583029.8,51358,11.25,73156.0,-10.29,-11.55,-11.45,0,*61
1507583031.02,51359,11.25,73154.0,-10.27,-11.41,-11.41,0,*6F
1507583032.29,51360,11.25,73150.0,-10.29,-11.45,-11.55,0,*6A
1507583033.59,51361,11.25,73150.5,-10.29,-11.55,-11.55,0,*6A
1507583034.86,51362,11.25,73144.5,-10.29,-11.45,-11.55,0,*68
1507583036.13,51363,11.25,73144.5,-10.29,-11.45,-11.59,0,*65
1507583037.41,51364,11.25,73142.8,-10.29,-11.45,-11.55,0,*6E
1507583038.68,51365,11.25,73148.8,-10.29,-11.55,-11.45,0,*6F
1507583039.95,51366,11.25,73144.5,-10.29,-11.45,-11.55,0,*6C
1507583041.23,51367,11.25,73150.3,-10.29,-11.45,-11.55,0,*6D
1507583042.5,51368,11.25,73152.5,-10.29,-11.45,-11.55,0,*62
1507583043.75,51369,11.25,73152.3,-10.29,-11.41,-11.45,0,*66
1507583045.01,51370,11.25,73156.0,-10.27,-11.51,-11.51,0,*64
1507583046.27,51371,11.25,73154.8,-10.27,-11.55,-11.55,0,*65
1507583047.56,51372,11.25,73146.3,-10.29,-11.55,-11.59,0,*64
1507583048.83,51373,11.25,73144.8,-10.31,-11.55,-11.59,0,*6C
1507583050.12,51374,11.25,73146.0,-10.29,-11.55,-11.59,0,*62
1507583051.42,51375,11.25,73142.0,-10.29,-11.55,-11.67,0,*6E
1507583052.71,51376,11.25,73138.3,-10.29,-11.55,-11.59,0,*60
1507583054.0,51377,11.25,73126.0,-10.29,-11.55,-11.55,0,*6D
1507583055.27,51378,11.25,73138.0,-10.29,-11.33,-11.41,0,*67
1507583056.54,51379,11.25,73152.3,-10.29,-11.33,-11.41,0,*66
1507583057.79,51380,11.25,73156.0,-10.29,-11.41,-11.41,0,*65
1507583059.04,51381,11.25,73162.5,-10.29,-11.41,-11.41,0,*64
1507583060.29,51382,11.25,73162.8,-10.29,-11.41,-11.45,0,*63
1507583061.56,51383,11.25,73160.5,-10.29,-11.45,-11.55,0,*67
1507583062.83,51384,11.25,73152.5,-10.29,-11.41,-11.55,0,*64
1507583064.05,51385,11.25,73146.5,-10.27,-11.41,-11.41,0,*6E
1507583065.3,51386,11.25,73142.0,-10.29,-11.41,-11.45,0,*67
1507583066.57,51387,11.25,73136.3,-10.29,-11.45,-11.55,0,*63
1507583067.79,51388,11.25,73134.5,-10.27,-11.41,-11.41,0,*63
1507583069.06,51389,11.25,73136.3,-10.27,-11.29,-11.37,0,*6D
1507583070.35,51390,11.25,73146.8,-10.29,-11.29,-11.33,0,*6F
1507583071.58,51391,11.25,73144.5,-10.29,-11.19,-11.19,0,*65
1507583072.85,51392,11.25,73152.0,-10.29,-11.19,-11.29,0,*65
1507583074.12,51393,11.25,73150.5,-10.29,-11.29,-11.41,0,*69
1507583075.39,51394,11.25,73150.3,-10.29,-11.33,-11.41,0,*65
1507583076.66,51395,11.25,73152.3,-10.29,-11.33,-11.41,0,*64
1507583077.93,51396,11.25,73150.0,-10.29,-11.33,-11.41,0,*67
1507583079.2,51397,11.25,73152.0,-10.29,-11.41,-11.55,0,*66
1507583080.45,51398,11.25,73150.8,-10.29,-11.41,-11.45,0,*68
1507583081.69,51399,11.25,73154.3,-10.29,-11.41,-11.45,0,*69
1507583082.97,51400,11.25,73154.3,-10.29,-11.41,-11.55,0,*6F
1507583084.23,51401,11.25,73154.5,-10.29,-11.33,-11.45,0,*6A
1507583085.5,51402,11.25,73152.8,-10.29,-11.55,-11.45,0,*69
1507583086.77,51403,11.25,73154.5,-10.29,-11.33,-11.45,0,*68
1507583088.04,51404,11.25,73156.5,-10.29,-11.33,-11.45,0,*6F
1507583089.29,51405,11.25,73148.3,-10.29,-11.41,-11.45,0,*6B
1507583090.56,51406,11.25,73150.5,-10.29,-11.41,-11.55,0,*69
1507583091.83,51407,11.25,73152.3,-10.29,-11.33,-11.41,0,*68
1507583093.07,51408,11.25,73150.8,-10.27,-11.29,-11.41,0,*62
1507583094.34,51409,11.25,73148.8,-10.29,-11.33,-11.45,0,*62
1507583095.61,51410,11.25,73148.3,-10.29,-11.33,-11.45,0,*6A
1507583096.88,51411,11.25,73150.8,-10.29,-11.33,-11.41,0,*6F
1507583098.13,51412,11.25,73150.5,-10.29,-11.41,-11.41,0,*69
1507583099.37,51413,11.25,73150.8,-10.29,-11.41,-11.41,0,*68
1507583100.62,51414,11.25,73154.3,-10.29,-11.41,-11.45,0,*6B
1507583101.89,51415,11.25,73148.0,-10.29,-11.41,-11.55,0,*6B
1507583103.14,51416,11.25,73138.8,-10.29,-11.45,-11.45,0,*6D
1507583104.39,51417,11.25,73134.0,-10.29,-11.45,-11.45,0,*6C
1507583105.68,51418,11.25,73144.8,-10.29,-11.55,-11.55,0,*63
1507583106.93,51419,11.25,73140.0,-10.29,-11.41,-11.41,0,*62
1507583108.18,51420,11.25,73144.8,-10.29,-11.41,-11.41,0,*68
1507583109.45,51421,11.25,73144.8,-10.29,-11.33,-11.41,0,*6C
1507583110.72,51422,11.25,73140.5,-10.29,-11.33,-11.41,0,*6F
1507583111.97,51423,11.25,73136.3,-10.29,-11.41,-11.45,0,*6F
1507583113.24,51424,11.25,73146.3,-10.29,-11.41,-11.55,0,*69
1507583114.51,51425,11.25,73128.8,-10.29,-11.33,-11.45,0,*6C
1507583115.72,51426,11.25,73132.0,-10.27,-11.41,-11.45,0,*64
1507583116.96,51427,11.25,73134.8,-10.27,-11.37,-11.41,0,*60
1507583118.21,51428,11.25,73138.3,-10.29,-11.41,-11.45,0,*64
1507583119.48,51429,11.25,73146.5,-10.29,-11.33,-11.41,0,*64
1507583120.72,51430,11.25,73152.8,-10.27,-11.29,-11.41,0,*69
1507583121.99,51431,11.25,73146.0,-10.27,-11.29,-11.37,0,*69
1507583123.24,51432,11.25,73140.8,-10.29,-11.41,-11.41,0,*6B
1507583124.47,51433,11.25,73142.3,-10.27,-11.37,-11.41,0,*65
1507583125.74,51434,11.25,73140.3,-10.27,-11.29,-11.37,0,*6C
1507583126.98,51435,11.25,73140.3,-10.27,-11.29,-11.41,0,*6C
1507583128.23,51436,11.25,73136.5,-10.29,-11.41,-11.41,0,*6F
1507583129.47,51437,11.25,73142.5,-10.27,-11.37,-11.41,0,*61
1507583130.71,51438,11.25,73138.3,-10.29,-11.41,-11.45,0,*65
1507583131.98,51439,11.25,73136.5,-10.29,-11.33,-11.45,0,*61
1507583133.23,51440,11.25,73138.0,-10.29,-11.41,-11.45,0,*6A
1507583134.47,51441,11.25,73138.8,-10.29,-11.41,-11.45,0,*6B
1507583135.72,51442,11.25,73130.8,-10.29,-11.45,-11.45,0,*6C
1507583136.97,51443,11.25,73138.0,-10.29,-11.41,-11.41,0,*6D
1507583138.24,51444,11.25,73144.5,-10.29,-11.33,-11.45,0,*6B
1507583139.51,51445,11.25,73132.0,-10.29,-11.33,-11.41,0,*6E
1507583140.77,51446,11.25,73124.5,-10.29,-11.19,-11.33,0,*60
1507583141.98,51447,11.25,73140.5,-10.27,-11.15,-11.11,0,*63
1507583143.19,51448,11.25,73136.5,-10.27,-11.23,-11.23,0,*68
1507583144.4,51449,11.25,73140.8,-10.27,-11.15,-11.23,0,*6C
1507583145.61,51450,11.25,73146.0,-10.27,-11.15,-11.11,0,*65
1507583146.82,51451,11.25,73150.8,-10.27,-11.11,-11.11,0,*60
1507583148.03,51452,11.25,73158.0,-10.27,-11.11,-11.11,0,*63
1507583149.24,51453,11.25,73152.3,-10.27,-11.11,-11.15,0,*66
1507583150.45,51454,11.25,73148.0,-10.27,-11.11,-11.15,0,*61
1507583151.67,51455,11.25,73150.8,-10.27,-11.11,-11.15,0,*60
1507583152.88,51456,11.25,73154.8,-10.27,-11.11,-11.15,0,*63
1507583154.1,51457,11.25,73156.5,-10.27,-11.19,-11.33,0,*6E
1507583155.34,51458,11.25,73152.5,-10.27,-11.23,-11.37,0,*6C
1507583156.6,51459,11.25,73150.5,-10.27,-11.37,-11.37,0,*68
1507583157.86,51460,11.25,73154.5,-10.27,-11.37,-11.29,0,*6D
1507583159.13,51461,11.25,73152.8,-10.27,-11.29,-11.51,0,*6C
1507583160.39,51462,11.25,73152.8,-10.27,-11.29,-11.37,0,*6F
1507583161.66,51463,11.25,73148.8,-10.29,-11.33,-11.41,0,*6A
1507583162.95,51464,11.25,73148.5,-10.29,-11.33,-11.33,0,*68
1507583164.19,51465,11.25,73154.5,-10.27,-11.29,-11.41,0,*69
1507583165.44,51466,11.25,73150.8,-10.27,-11.29,-11.41,0,*6A
1507583166.68,51467,11.25,73150.3,-10.27,-11.37,-11.41,0,*64
1507583167.92,51468,11.25,73150.5,-10.27,-11.33,-11.41,0,*6F
1507583169.19,51469,11.25,73148.0,-10.29,-11.33,-11.41,0,*60
1507583170.45,51470,11.25,73154.0,-10.27,-11.29,-11.37,0,*6C
1507583171.7,51471,11.25,73158.3,-10.27,-11.29,-11.41,0,*6C
1507583172.96,51472,11.25,73148.3,-10.27,-11.29,-11.37,0,*6E
1507583174.23,51473,11.25,73144.3,-10.27,-11.29,-11.37,0,*6F
1507583175.47,51474,11.25,73142.8,-10.29,-11.41,-11.45,0,*6D
1507583176.73,51475,11.25,73156.5,-10.27,-11.37,-11.37,0,*66
1507583177.97,51476,11.25,73138.8,-10.27,-11.29,-11.23,0,*6F
1507583179.23,51477,11.25,73130.3,-10.27,-11.37,-11.37,0,*64
1507583180.5,51478,11.25,73124.3,-10.29,-11.33,-11.41,0,*60
1507583181.77,51479,11.25,73126.3,-10.27,-11.29,-11.37,0,*65
1507583183.01,51480,11.25,73136.5,-10.27,-11.23,-11.29,0,*66
1507583184.27,51481,11.25,73148.0,-10.27,-11.29,-11.37,0,*62
1507583185.48,51482,11.25,73148.8,-10.27,-11.15,-11.23,0,*6B
1507583186.69,51483,11.25,73146.3,-10.27,-11.15,-11.23,0,*6A
1507583187.93,51484,11.25,73150.3,-10.27,-11.23,-11.29,0,*62
1507583189.2,51485,11.25,73146.3,-10.27,-11.29,-11.29,0,*69
1507583190.46,51486,11.25,73136.3,-10.27,-11.37,-11.37,0,*6A
1507583191.72,51487,11.25,73140.5,-10.27,-11.37,-11.37,0,*6B
1507583192.98,51488,11.25,73152.8,-10.27,-11.29,-11.37,0,*6B
1507583194.25,51489,11.25,73150.8,-10.27,-11.29,-11.29,0,*65
1507583195.49,51490,11.25,73150.5,-10.27,-11.23,-11.29,0,*67
1507583196.76,51491,11.25,73142.8,-10.29,-11.33,-11.41,0,*67
1507583198.0,51492,11.25,73136.8,-10.27,-11.37,-11.41,0,*6E
1507583199.24,51493,11.25,73146.0,-10.27,-11.37,-11.41,0,*6F
1507583200.5,51494,11.25,73148.3,-10.27,-11.37,-11.37,0,*69
1507583201.76,51495,11.25,73148.8,-10.27,-11.29,-11.51,0,*67
1507583203.01,51496,11.25,73148.0,-10.27,-11.29,-11.41,0,*65
1507583204.25,51497,11.25,73148.5,-10.27,-11.37,-11.41,0,*6B
1507583205.5,51498,11.25,73148.8,-10.27,-11.37,-11.51,0,*65
1507583206.72,51499,11.25,73148.8,-10.27,-11.41,-11.45,0,*60
1507583207.96,51500,11.25,73150.5,-10.27,-11.41,-11.51,0,*64
1507583209.22,51501,11.25,73150.5,-10.27,-11.51,-11.55,0,*60
1507583210.48,51502,11.25,73150.0,-10.27,-11.51,-11.55,0,*63
1507583211.77,51503,11.25,73146.5,-10.25,-11.51,-11.55,0,*60
1507583213.05,51504,11.25,73142.8,-10.29,-11.45,-11.55,0,*6E
1507583214.3,51505,11.25,73140.5,-10.29,-11.45,-11.45,0,*6E
1507583215.53,51506,11.25,73150.0,-10.27,-11.37,-11.41,0,*62
1507583216.78,51507,11.25,73144.5,-10.27,-11.41,-11.55,0,*67
1507583218.02,51508,11.25,73152.8,-10.27,-11.41,-11.51,0,*6C
1507583219.24,51509,11.25,73158.8,-10.27,-11.41,-11.41,0,*6C
1507583220.49,51510,11.25,73158.0,-10.27,-11.51,-11.51,0,*64
1507583221.76,51511,11.25,73154.8,-10.25,-11.41,-11.51,0,*66
1507583223.02,51512,11.25,73158.8,-10.27,-11.37,-11.51,0,*66
1507583224.26,51513,11.25,73150.3,-10.27,-11.41,-11.51,0,*66
1507583225.52,51514,11.25,73152.5,-10.27,-11.51,-11.51,0,*60
1507583226.76,51515,11.25,73158.0,-10.27,-11.41,-11.55,0,*64
1507583228.0,51516,11.25,73156.3,-10.27,-11.41,-11.51,0,*63
1507583229.22,51517,11.25,73154.8,-10.27,-11.41,-11.41,0,*63
1507583230.46,51518,11.25,73158.3,-10.27,-11.41,-11.51,0,*6D
1507583231.74,51519,11.25,73158.8,-10.29,-11.33,-11.33,0,*63
1507583232.98,51520,11.25,73162.8,-10.27,-11.37,-11.41,0,*66
1507583234.22,51521,11.25,73164.8,-10.27,-11.37,-11.41,0,*67
1507583235.46,51522,11.25,73162.5,-10.27,-11.41,-11.55,0,*60
1507583236.7,51523,11.25,73166.3,-10.27,-11.37,-11.41,0,*65
1507583237.95,51524,11.25,73166.8,-10.29,-11.45,-11.45,0,*6D
1507583239.19,51525,11.25,73164.8,-10.27,-11.41,-11.51,0,*63
1507583240.43,51526,11.25,73162.8,-10.27,-11.41,-11.51,0,*60
1507583241.67,51527,11.25,73162.3,-10.27,-11.41,-11.51,0,*61
1507583242.91,51528,11.25,73162.3,-10.27,-11.41,-11.51,0,*6E
1507583244.18,51529,11.25,73164.8,-10.29,-11.45,-11.55,0,*61
1507583245.43,51530,11.25,73162.5,-10.27,-11.45,-11.55,0,*67
1507583246.7,51531,11.25,73164.3,-10.29,-11.45,-11.55,0,*68
1507583247.96,51532,11.25,73166.3,-10.27,-11.51,-11.51,0,*64
1507583249.22,51533,11.25,73164.0,-10.27,-11.51,-11.51,0,*65
1507583250.52,51534,11.25,73166.3,-10.29,-11.55,-11.55,0,*6C
1507583251.76,51535,11.25,73162.0,-10.27,-11.41,-11.51,0,*62
1507583253.03,51536,11.25,73164.0,-10.29,-11.45,-11.59,0,*63
1507583254.32,51537,11.25,73164.3,-10.29,-11.55,-11.55,0,*6F
1507583255.58,51538,11.25,73164.0,-10.27,-11.51,-11.51,0,*6E
1507583256.84,51539,11.25,73160.5,-10.27,-11.55,-11.51,0,*6B
1507583258.14,51540,11.25,73158.5,-10.29,-11.55,-11.59,0,*63
1507583259.4,51541,11.25,73156.3,-10.27,-11.51,-11.55,0,*64
1507583260.67,51542,11.25,73152.5,-10.29,-11.45,-11.55,0,*6C
1507583261.89,51543,11.25,73152.3,-10.27,-11.41,-11.41,0,*62
1507583263.13,51544,11.25,73154.5,-10.27,-11.51,-11.41,0,*64
1507583264.43,51545,11.25,73156.0,-10.29,-11.55,-11.67,0,*6B
1507583265.64,51546,11.25,73160.3,-10.27,-11.41,-11.41,0,*67
1507583266.88,51547,11.25,73162.5,-10.27,-11.41,-11.51,0,*67
1507583268.13,51548,11.25,73162.3,-10.29,-11.41,-11.45,0,*63
1507583269.39,51549,11.25,73160.3,-10.27,-11.29,-11.37,0,*67
1507583270.66,51550,11.25,73154.5,-10.29,-11.33,-11.45,0,*6F
1507583271.91,51551,11.25,73160.3,-10.29,-11.41,-11.45,0,*6B
1507583273.17,51552,11.25,73156.5,-10.27,-11.37,-11.51,0,*62
1507583274.41,51553,11.25,73164.0,-10.27,-11.41,-11.51,0,*62
1507583275.65,51554,11.25,73168.3,-10.29,-11.41,-11.41,0,*6A
1507583276.9,51555,11.25,73168.8,-10.29,-11.41,-11.45,0,*6F
1507583278.16,51556,11.25,73164.8,-10.27,-11.29,-11.37,0,*69
1507583279.43,51557,11.25,73174.0,-10.27,-11.29,-11.37,0,*68
1507583280.7,51558,11.25,73162.3,-10.29,-11.33,-11.41,0,*63
1507583281.97,51559,11.25,73164.3,-10.27,-11.29,-11.29,0,*69
1507583283.24,51560,11.25,73164.3,-10.29,-11.33,-11.41,0,*68
1507583284.48,51561,11.25,73168.3,-10.27,-11.29,-11.41,0,*6C
1507583285.73,51562,11.25,73164.5,-10.29,-11.41,-11.45,0,*6B
1507583286.97,51563,11.25,73160.5,-10.27,-11.41,-11.51,0,*61
1507583288.21,51564,11.25,73160.8,-10.27,-11.45,-11.55,0,*66
1507583289.46,51565,11.25,73154.3,-10.27,-11.41,-11.55,0,*63
1507583290.72,51566,11.25,73158.8,-10.29,-11.55,-11.45,0,*6A
1507583291.97,51567,11.25,73158.3,-10.27,-11.41,-11.63,0,*64
1507583293.23,51568,11.25,73150.3,-10.27,-11.51,-11.63,0,*6A